This demonstration page uses our WeatherBlox Daily Observations layout. Learn more.

39.51506, -84.39828

Hourly Observations for November 24, 2018

Temp ( °F °C ) Dew Point ( °F °C ) Humidity (%) Winds ( mph kmh ) Pressure ( in mb ) Visibility ( mi km ) Precip ( " mm )
12:15 am 00:15 Cloudy with Rain 47 8.2 41 5.2 82 82 SSE 9 15 29.85 1011 7 11.26538 0.04 1.016
12:35 am 00:35 Cloudy with Rain 46 7.7 43 6 89 89 SSE 14 22 29.85 1011 10 16.0934 0.09 2.286
12:55 am 00:55 Cloudy with Light Rain 45 7.4 43 6.3 93 93 SE 7 11 29.85 1011 5 8.0467 0.16 4.064
1:15 am 01:15 Cloudy with Light Rain 45 7.4 43 6.1 92 92 SSE 7 11 29.85 1011 10 16.0934 0.02 0.508
1:35 am 01:35 Cloudy with Light Rain 45 7.4 43 6.2 92 92 SSE 9 15 29.85 1011 7 11.26538 0.03 0.762
1:55 am 01:55 Cloudy with Light Rain 45 7.4 43 6 91 91 SE 12 19 29.83 1010 7 11.26538 0.04 1.016
2:15 am 02:15 Cloudy with Light Rain 45 7.2 43 6 92 92 SSE 9 15 29.83 1010 7 11.26538 0.01 0.254
2:35 am 02:35 Cloudy with Rain 45 7.3 43 6.2 93 93 SSE 10 17 29.83 1010 5 8.0467 0.05 1.27
2:55 am 02:55 Cloudy with Light Rain 45 7.2 43 6.2 93 93 SE 10 17 29.8 1009 7 11.26538 0.07 1.778
3:15 am 03:15 Cloudy with Light Rain 45 7.2 43 6.1 93 93 SSE 10 17 29.8 1009 10 16.0934 0.01 0.254
3:35 am 03:35 Cloudy with Rain 45 7.2 43 6.1 93 93 SSE 13 20 29.77 1008 7 11.26538 0.05 1.27
3:55 am 03:55 Cloudy with Rain 45 7.4 43 6.3 93 93 SE 8 13 29.77 1008 7 11.26538 0.08 2.032
4:15 am 04:15 Cloudy with Rain 45 7.4 44 6.4 93 93 SSE 9 15 29.74 1007 7 11.26538 0.02 0.508
4:35 am 04:35 Cloudy with Light Rain 46 7.5 44 6.5 93 93 SSE 12 19 29.74 1007 7 11.26538 0.05 1.27
4:55 am 04:55 Cloudy with Light Rain 46 7.6 44 6.7 94 94 SE 10 17 29.74 1007 5 8.0467 0.06 1.524
5:15 am 05:15 Cloudy with Light Rain 46 7.8 45 7 95 95 S 9 15 29.74 1007 5 8.0467 0.01 0.254
5:35 am 05:35 Cloudy with Light Rain 46 7.9 45 7.1 95 95 SSE 12 19 29.74 1007 3.5 5.63269 0.02 0.508
5:55 am 05:55 Cloudy with Light Rain 46 8 45 7 93 93 S 10 17 29.74 1007 7 11.26538 0.02 0.508
6:15 am 06:15 Cloudy with Light Drizzle 47 8.1 45 7.2 94 94 S 12 19 29.71 1006 7 11.26538 0 0
6:35 am 06:35 Cloudy with Light Drizzle 47 8.1 45 7.3 95 95 S 12 19 29.71 1006 5 8.0467 0 0
6:55 am 06:55 Cloudy 47 8.1 45 7.3 95 95 S 9 15 29.71 1006 10 16.0934 0 0
7:15 am 07:15 Cloudy with Light Rain 47 8.2 45 7.4 95 95 S 9 15 29.71 1006 10 16.0934 0 0
7:35 am 07:35 Cloudy 47 8.3 46 7.6 95 95 S 9 15 29.71 1006 10 16.0934 0 0
7:55 am 07:55 Cloudy with Mist and Fog 47 8.3 46 7.6 95 95 SSW 12 19 29.71 1006 2.5 4.02335 0 0
8:15 am 08:15 Cloudy with Mist and Fog 47 8.4 46 7.7 95 95 SSW 9 15 29.71 1006 3 4.82802 0 0
8:35 am 08:35 Cloudy with Light Drizzle 47 8.4 46 7.9 97 97 S 10 17 29.71 1006 2.5 4.02335 0 0
8:55 am 08:55 Cloudy with Light Drizzle 47 8.5 46 7.9 96 96 S 10 17 29.71 1006 7 11.26538 0 0
9:15 am 09:15 Cloudy with Light Drizzle 48 8.7 47 8.1 96 96 S 13 20 29.71 1006 3.5 5.63269 0.01 0.254
9:35 am 09:35 Cloudy with Mist and Fog 48 8.7 47 8.1 96 96 S 12 19 29.71 1006 3.5 5.63269 0.01 0.254
9:55 am 09:55 Cloudy with Mist and Fog 48 8.8 47 8.2 96 96 S 9 15 29.71 1006 2.5 4.02335 0.01 0.254
10:15 am 10:15 Cloudy with Light Drizzle 48 8.9 47 8.3 96 96 S 12 19 29.71 1006 3.5 5.63269 0 0
10:35 am 10:35 Cloudy with Mist and Fog 48 9 47 8.4 96 96 S 12 19 29.71 1006 4 6.43736 0 0
10:55 am 10:55 Cloudy with Mist and Fog 49 9.2 47 8.6 96 96 SSW 10 17 29.71 1006 2.5 4.02335 0 0
11:15 am 11:15 Cloudy with Light Rain 49 9.3 48 8.8 97 97 SSW 12 19 29.71 1006 2 3.21868 0 0
11:35 am 11:35 Cloudy 50 9.8 48 9.1 95 95 SSW 15 24 29.71 1006 10 16.0934 0 0
11:55 am 11:55 Cloudy 50 10.1 48 9.1 94 94 SW 14 22 29.71 1006 10 16.0934 0 0
12:15 pm 12:15 Cloudy 50 10.2 48 9 92 92 SSW 12 19 29.68 1005 10 16.0934 0 0
12:35 pm 12:35 Cloudy 51 10.6 48 9 90 90 SW 13 20 29.68 1005 10 16.0934 0 0
12:55 pm 12:55 Cloudy 51 10.7 48 9 89 89 SW 17 28 29.68 1005 10 16.0934 0 0
1:15 pm 13:15 Mostly Cloudy 53 11.5 49 9.2 86 86 SW 15 24 29.68 1005 10 16.0934 0 0
1:35 pm 13:35 Cloudy 53 11.7 49 9.3 85 85 SW 14 22 29.68 1005 10 16.0934 0 0
1:55 pm 13:55 Cloudy 54 12 49 9.2 83 83 SW 17 28 29.68 1005 10 16.0934 0 0
2:15 pm 14:15 Cloudy 53 11.9 47 8.4 79 79 SW 14 22 29.68 1005 10 16.0934 0 0
2:35 pm 14:35 Mostly Cloudy 53 11.9 47 8.1 78 78 SW 13 20 29.68 1005 10 16.0934 0 0
2:55 pm 14:55 Mostly Cloudy 54 12.2 47 8.4 78 78 SW 14 22 29.65 1004 10 16.0934 0 0
3:15 pm 15:15 Partly Cloudy 54 12.1 46 7.7 75 75 SW 17 28 29.71 1006 10 16.0934 0 0
3:35 pm 15:35 Mostly Cloudy 54 12.1 47 8.1 77 77 SSW 14 22 29.71 1006 10 16.0934 0 0
3:55 pm 15:55 Mostly Cloudy 54 12 46 7.6 75 75 SW 14 22 29.71 1006 10 16.0934 0 0
4:15 pm 16:15 Partly Cloudy 53 11.8 46 7.5 75 75 SSW 14 22 29.71 1006 10 16.0934 0 0
4:35 pm 16:35 Partly Cloudy 53 11.6 46 7.6 77 77 SSW 13 20 29.71 1006 10 16.0934 0 0
4:55 pm 16:55 Sunny 52 11.3 45 7.3 77 77 SSW 13 20 29.71 1006 10 16.0934 0 0
5:15 pm 17:15 Sunny 51 10.3 45 7.1 81 81 SW 10 17 29.74 1007 10 16.0934 0 0
5:35 pm 17:35 Clear 49 9.5 44 6.9 84 84 SSW 9 15 29.74 1007 10 16.0934 0 0
5:55 pm 17:55 Clear 48 8.7 44 6.6 87 87 SW 9 15 29.74 1007 10 16.0934 0 0
6:15 pm 18:15 Clear 47 8.2 44 6.5 89 89 SSW 7 11 29.74 1007 10 16.0934 0 0
6:35 pm 18:35 Clear 46 7.8 44 6.4 91 91 SW 7 11 29.77 1008 10 16.0934 0 0
6:55 pm 18:55 Clear 46 7.8 43 6.2 90 90 SW 7 11 29.77 1008 10 16.0934 0 0
7:15 pm 19:15 Clear 45 7.3 43 5.9 91 91 SSW 7 11 29.77 1008 10 16.0934 0 0
7:35 pm 19:35 Clear 45 7.1 42 5.7 91 91 SSW 3 6 29.77 1008 10 16.0934 0 0
7:55 pm 19:55 Clear 43 6.2 42 5.6 96 96 SSW 3 6 29.77 1008 7 11.26538 0 0
8:15 pm 20:15 Clear with Mist and Fog 41 5.1 40 4.7 97 97 SW 3 6 29.77 1008 5 8.0467 0 0
8:35 pm 20:35 Clear 43 6.3 43 6.1 99 99 Calm 29.8 1009 7 11.26538 0 0
8:55 pm 20:55 Clear with Mist and Fog 42 5.7 42 5.3 97 97 Calm 29.8 1009 5 8.0467 0 0
9:15 pm 21:15 Clear with Mist and Fog 42 5.6 41 5.2 97 97 Calm 29.8 1009 5 8.0467 0 0
9:35 pm 21:35 Mostly Cloudy with Fog 39 3.7 38 3.5 99 99 Calm 29.8 1009 0.25 0.402335 0 0
9:55 pm 21:55 Mostly Cloudy with Fog 37 2.9 37 2.7 99 99 Calm 29.8 1009 0.25 0.402335 0 0
10:15 pm 22:15 Mostly Cloudy with Fog 38 3.5 38 3.3 99 99 Calm 29.83 1010 0.25 0.402335 0 0
10:35 pm 22:35 Mostly Cloudy with Fog 38 3.4 38 3.3 99 99 Calm 29.83 1010 0.25 0.402335 0 0
10:55 pm 22:55 Mostly Cloudy with Fog 35 1.9 35 1.7 99 99 Calm 29.83 1010 0.25 0.402335 0 0
11:15 pm 23:15 Mostly Cloudy with Fog 37 2.8 37 2.6 99 99 Calm 29.83 1010 0.25 0.402335 0 0
11:35 pm 23:35 Mostly Cloudy with Fog 36 2 35 1.9 99 99 Calm 29.83 1010 0.25 0.402335 0 0
11:55 pm 23:55 Mostly Cloudy with Fog 36 2 35 1.9 99 99 Calm 29.83 1010 0.25 0.402335 0 0

Powered by AerisWeather